Weather in Yarovoye

Russia / Tyumen Oblast     55°59′29″N   67°34′48″E
temp.,
°C
wind,
m/s
gust,
m/s
humid.,
%
clouds,
%
prec.,
mm/h
press.,
hPa
HPBL,
m
17 may, mon
mon1723:00+22wsw33398 0.0 101630
02:00+20wsw411405 0.0 1016163
05:00+18wnw49525 0.0 1016146
08:00+25wnw46355 0.0 1016273
11:00+30w710265 0.0 10162862
14:00+32w891894 0.0 10154215
17:00+30w8122271 0.0 10133416
20:00+25w46383 0.0 101287
18 may, tue
tue1823:00+21n494910 0.3 1013334
02:00+17w347080 1.7 101375
05:00+16wnw51081100 1.7 1013297
08:00+20w4660100 0.0 1012427
11:00+23wnw45479 0.0 10121192
14:00+24nnw684080 0.1 10122297
17:00+20n6858100 2.3 10121248
20:00+16nne7106956 0.0 1015979
19 may, wed
wed1923:00+14nne71073100 0.1 1017968
02:00+13nne6868100 0.0 1019834
05:00+11nne6107494 0.0 1021498
08:00+13nne69500 0.0 10221143
11:00+16nne68353 0.0 10221617
14:00+18nne67295 0.0 10221838
17:00+19nne57295 0.0 10221976
20:00+16nne33445 0.0 102235
20 may, thu
thu2023:00+12nne34556 0.0 102364
02:00+10ne226113 0.0 102314
05:00+9ese11637 0.0 102510
08:00+15wsw334636 0.0 1024473
11:00+20w56368 0.0 10231465
14:00+23wnw68315 0.0 10211894
17:00+24wnw68319 0.0 10201850
20:00+20w48475 0.0 1019137
21 may, fri
fri2123:00+16w411565 0.0 1019169
02:00+15w411590 0.0 1019174
05:00+14wnw410610 0.0 1020154
08:00+21wnw46420 0.0 1020312
11:00+26wnw45300 0.0 10201186
14:00+28w55240 0.0 10192352
17:00+28w56250 0.0 10182634
20:00+23w48430 0.0 1018125